This is the latest recevied weather packets stored in our database for station/object OE-11073. If no packets are shown the sender has not sent any weather packets the latest 10 day(s).
| Time | Temp. | Humidity | Pressure | Rain* | Wind** | Luminosity | Snow |
|---|---|---|---|---|---|---|---|
| 1788073509 | 16.67° C | 76% | - | 0 mm | - | 314 W/m² | - |
| 1788072909 | 16.11° C | 79% | - | 0 mm | - | 291 W/m² | - |
| 1788072083 | 15.56° C | 82% | - | 0 mm | - | 260 W/m² | - |
| 1788071710 | 15° C | 83% | - | 0 mm | - | 237 W/m² | - |
| 1788071110 | 15° C | 85% | - | 0 mm | - | 207 W/m² | - |
| 1788070283 | 13.89° C | 90% | - | 0 mm | - | 184 W/m² | - |
| 1788069909 | 12.78° C | 93% | - | 0 mm | - | 54 W/m² | - |
| 1788069310 | 13.33° C | 90% | - | 0 mm | - | 77 W/m² | - |
| 1788068483 | 13.33° C | 91% | - | 0 mm | - | 99 W/m² | - |
| 1788068110 | 12.78° C | 91% | - | 0 mm | - | 77 W/m² | - |
| 1788067510 | 12.22° C | 94% | - | 0 mm | - | 54 W/m² | - |
| 1788066683 | 11.67° C | 96% | - | 0 mm | - | 23 W/m² | - |
| 1788066309 | 11.67° C | 94% | - | 0 mm | - | 15 W/m² | - |
| 1788065709 | 12.22° C | 94% | - | 0 mm | - | 8 W/m² | - |
| 1788064882 | 12.78° C | 93% | - | 0 mm | - | 0 W/m² | - |
| 1788064509 | 12.78° C | 92% | - | 0 mm | - | 0 W/m² | - |
| 1788063909 | 13.33° C | 91% | - | 0 mm | - | 0 W/m² | - |
| 1788063082 | 12.78° C | 92% | - | 0 mm | - | 0 W/m² | - |
| 1788062709 | 12.78° C | 93% | - | 0 mm | - | 0 W/m² | - |
| 1788062109 | 12.22° C | 94% | - | 0 mm | - | 0 W/m² | - |
| 1788061510 | 12.78° C | 94% | - | 0 mm | - | 0 W/m² | - |
| 1788060909 | 13.33° C | 91% | - | 0 mm | - | 0 W/m² | - |
| 1788060309 | 12.78° C | 93% | - | 0 mm | - | 0 W/m² | - |
| 1788059483 | 13.33° C | 93% | - | 0 mm | - | 0 W/m² | - |
| 1788059110 | 13.33° C | 92% | - | 0 mm | - | 0 W/m² | - |
* Rain latest hour (hover to see other rain measurements)
** Current wind speed in m/s (hover to see current wind gust speed)